Regional Weather Roundup
Issued by NWS

Home | Current Version | Previous Version | Text Only | Print | Product List | Glossary On
Versions: 1 2 3 4 5 6 7 8 9 10 11 12 13 14 15 16 17 18 19 20 21 22 23 24 25 26 27 28 29 30 31 32 33 34 35 36 37 38 39 40 41 42 43 44 45 46 47 48 49 50
000
ASUS44 KFWD 251015
RWRTX
NORTH TEXAS HOURLY WEATHER ROUNDUP
NATIONAL WEATHER SERVICE FORT WORTH TX
500 AM CDT SAT MAR 25 2017

NOTE: "FAIR" INDICATES FEW OR NO CLOUDS BELOW 12,000 FEET WITH NO
SIGNIFICANT WEATHER AND/OR OBSTRUCTIONS TO VISIBILITY.

TXZ118-119-251100-
DALLAS/FORT WORTH METROPLEX

CITY           SKY/WX    TMP DP  RH WIND       PRES   REMARKS
DFW AIRPORT    PTCLDY    58  45  62 W16       29.91R
DALLAS LOVE    CLEAR     58  45  62 NW15G23   29.92R
FTW MEACHAM    CLEAR     56  43  61 W14       29.93R
DAL-EXECUTIVE  CLEAR     57  46  66 W12G22    29.91R
FTW-ALLIANCE   CLEAR     54  45  71 W13       29.92R
FTW-SPINKS     CLEAR     55  44  64 NW16      29.96R
ARLINGTON      CLEAR     57  44  62 W16G24    29.93R
GRAND PRAIRIE  CLEAR     57  43  59 W10G20    29.95R
ADDISON        CLEAR     56  45  66 W12G20    29.93R
MESQUITE       CLEAR     56  45  65 W15G21    29.92R
LANCASTER      CLEAR     56  45  65 NW14G21   29.94R
$$

TXZ091>094-102>105-117-120-121-131>134-251100-
NORTH CENTRAL TEXAS

CITY           SKY/WX    TMP DP  RH WIND       PRES   REMARKS
SHRMAN/DENISON CLOUDY    55  46  71 W18G24    29.89R
GAINESVILLE    CLOUDY    54  43  66 NW23G30   29.92S
BOWIE          PTCLDY    52  44  74 NW14G23   29.93S
BRIDGEPORT     CLEAR     53  43  67 NW13G20   29.97R
DECATUR        CLEAR     52  43  71 W12G17    29.94R
DENTON         CLEAR     53  45  74 W13       29.92R
MCKINNEY       CLEAR     55  46  71 W15G25    29.90R
BONHAM         CLEAR     54  46  76 W15       29.87R
GREENVILLE     CLEAR     55  45  67 W12G20    29.90R
ROCKWALL       CLEAR     56  46  67 NW13G21   29.91R
TERRELL        CLEAR     56  45  66 W12       29.92R
WAXAHACHIE     CLEAR     56  46  69 W7G18     29.95R
CLEBURNE       CLEAR     55  45  67 NW20      29.97R
GRANBURY       CLEAR     55  44  65 W6        29.99R
$$

TXZ083>090-098>101-113>116-127>130-139>142-154-155-251100-
WESTERN NORTH TEXAS

CITY           SKY/WX    TMP DP  RH WIND       PRES   REMARKS
WICHITA FALLS  CLEAR     50  41  71 NW15      29.95S
WF-KICKAPOO    CLEAR     52  42  69 NW15G21   29.97S
VERNON         MOCLDY    52  37  56 NW28G33   29.99S
ABILENE        CLEAR     47  38  71 W8        30.05S
ABILENE-DYESS  CLEAR     48  38  68 W7        30.04S
GRAHAM         CLEAR     51  43  74 W6        29.97S
BRECKENRIDGE   CLEAR     53  40  62 NW7       30.01S
CISCO          CLEAR     50  39  66 NW9G15    30.02R
RANGER         CLEAR     50  41  71 NW8       30.00S
MINERAL WELLS  CLEAR     53  42  66 NW15      29.96R
STEPHENVILLE   CLEAR     53  41  64 W7        30.01S
COMANCHE       CLEAR     51  41  69 W10       30.02S
BROWNWOOD      PTCLDY    50  39  66 NW8       30.03S
COLEMAN        CLEAR     49  38  65 W3        30.04S
$$

TXZ143>147-156>162-174-175-251100-
CENTRAL TEXAS

CITY           SKY/WX    TMP DP  RH WIND       PRES   REMARKS
WACO           PTCLDY    57  44  62 NW10G20   29.97R
WACO-MCGREGOR  PTCLDY    57  43  59 W10G18    29.98R
HILLSBORO      CLEAR     56  46  69 W8        29.96R
CORSICANA      PTCLDY    55  46  71 W9        29.95R
MEXIA          PTCLDY    57  44  62 W8        29.95R
HEARNE         CLEAR     60  46  61 W7        30.00R
CAMERON        CLEAR     58  45  60 NW3       29.99R
TEMPLE         CLEAR     58  43  57 W13       29.99R
KILLEEN        CLEAR     57  41  54 NW9       29.99R
KILLEEN-SKYLRK CLEAR     57  42  57 NW6       30.00R
FORT HOOD      CLEAR     56  42  58 NW10      29.96R
GATESVILLE     CLEAR     57  41  54 NW7       30.01S
HAMILTON       CLEAR     54  42  63 NW12      30.01S
LAMPASAS       CLEAR     55  44  64 W3        30.00R
$$

TXZ095>097-106>112-122>126-135>138-148>153-164>167-251100-
EAST TEXAS

CITY           SKY/WX    TMP DP  RH WIND       PRES   REMARKS
PARIS          MOCLDY    55  46  71 SW10      29.85R
SULPHUR SPRNGS CLEAR     58  48  69 W14       29.89R
MOUNT PLEASANT CLEAR     60  47  62 W10       29.89R
GILMER         CLEAR     59  48  67 W3        29.89R
MINEOLA        CLEAR     57  46  67 SW5       29.90R
TYLER          CLEAR     59  48  67 W7        29.90R
LONGVIEW       CLEAR     63  59  87 W12       29.88R
MARSHALL         N/A    N/A N/A N/A MISG        N/A
ATHENS         PTCLDY    55  45  67 CALM      29.92R
PALESTINE      PTCLDY    58  50  74 W6        29.95R
JACKSONVILLE   CLEAR     62  52  70 W9        29.94R
HENDERSON      CLEAR     62  56  80 W9        29.91R
CENTER         CLOUDY    66  65  96 S8        29.92R
NACOGDOCHES    CLOUDY   N/A N/A N/A SW5       29.90R
LUFKIN         MOCLDY    62  61  96 S6        29.92S FOG
$$

SUPPLEMENTAL OBSERVATIONS (CENTRAL)

CITY           SKY/WX    TMP DP  RH WIND       PRES   REMARKS
DENISON DAM      N/A     55  46  71 W30         N/A
CADDO GRASSLND   N/A     57  48  72 W8G20       N/A
PAT MAYSE LAKE   N/A     57  50  77 SW15        N/A
GREENVILLE       N/A     55  46  71 W14         N/A
CEDAR HILL       N/A     57  45  62 NW7G20      N/A
ATHENS           N/A     57  45  62 SW1         N/A
LAKE LIMESTONE   N/A     57  46  67 W5          N/A
MCGREGOR         N/A     55  41  58 NW5         N/A
TEMPLE           N/A     59  41  51 NW6G16      N/A
$$

SUPPLEMENTAL OBSERVATIONS (WEST)

CITY           SKY/WX    TMP DP  RH WIND       PRES   REMARKS
MILLERS CREEK    N/A     48  37  66 NW8         N/A
POSSUM KINGDOM   N/A     52  41  66 W6G16       N/A
LBJ GRASSLAND    N/A     54  43  66 W9G17       N/A
GRANBURY         N/A     54  41  62 W7          N/A
COMANCHE         N/A     52  39  62 W12         N/A
HAMBY            N/A     45  37  76 W7          N/A
IVIE RESERVOIR   N/A     52  37  58 W9          N/A
COLORADO BEND    N/A     54  36  50 N3          N/A
$$

SUPPLEMENTAL OBSERVATIONS (EAST)

CITY           SKY/WX    TMP DP  RH WIND       PRES   REMARKS
CLARKSVILLE      N/A     55  46  71 SW3         N/A
CADDO LAKE       N/A    N/A N/A N/A SE1         N/A
GILMER           N/A     57  48  72 W3          N/A
HENDERSON        N/A     63  52  67 W12         N/A
LUFKIN           N/A    N/A N/A N/A MISG        N/A
N SABINE NF      N/A     61  59  94 MISG        N/A
S SABINE NF      N/A     61  57  88 NW3         N/A
$$

SUPPLEMENTAL OBSERVATIONS ARE A COLLECTION OF AUTOMATED INSTRUMENTS
THAT ARE MAINTAINED BY A VARIETY OF FEDERAL AND STATE AGENCIES.
CERTAIN ELEMENTS...SUCH AS HUMIDITY VALUES AND SUSTAINED WIND
SPEEDS...MAY BE APPROXIMATED.




USA.gov is the U.S. government's official web portal to all federal, state and local government web resources and services.